Location: Colle Santa Colomba
(42.0333°N, 12.5667°E)
Time: 01:38:32
(UTC+00:00)

Cosmos 1190 Rocket - Pass Details

Date: 25 October 2021
Orbit: 756 x 780 km, 74.1° (Epoch: 05 December)

Event Time Altitude Azimuth Distance (km) Brightness Sun altitude
Rises 18:19:53 0° 343° (NNW) 3,225 7.5 -24.2°
Reaches altitude 10° 18:22:18 10° 348° (NNW) 2,298 6.7 -24.6°
Enters shadow 18:26:13 45° 20° (NNE) 1,027 4.5 -25.4°
